Time,TemperatureF,DewpointF,PressureIn,WindDirection,WindDirectionDegrees,WindSpeedMPH,WindSpeedGustMPH,Humidity,HourlyPrecipIn,Conditions,Clouds,dailyrainin,SolarRadiationWatts/m^2,SoftwareType,DateUTC
2013-01-19 00:02:00,45.4,31.5,30.06,SSW,204,8.0,9.0,58,0.00,,,0.00,0,Wunderground v.1.15,2013-01-19 06:02:00,
2013-01-19 00:08:00,45.3,31.4,30.06,SSW,199,8.0,10.0,58,0.00,,,0.00,0,Wunderground v.1.15,2013-01-19 06:08:00,
2013-01-19 00:14:00,45.1,31.2,30.05,SSW,210,8.0,12.0,58,0.00,,,0.00,0,Wunderground v.1.15,2013-01-19 06:14:00,
2013-01-19 00:20:00,45.0,31.1,30.06,SSW,212,8.0,10.0,58,0.00,,,0.00,0,Wunderground v.1.15,2013-01-19 06:20:00,
2013-01-19 00:26:00,44.8,31.3,30.06,South,188,8.0,10.0,59,0.00,,,0.00,0,Wunderground v.1.15,2013-01-19 06:26:00,
2013-01-19 00:34:00,44.6,31.1,30.06,SSW,206,8.0,12.0,59,0.00,,,0.00,0,Wunderground v.1.15,2013-01-19 06:34:00,
2013-01-19 00:40:00,44.4,31.0,30.06,SSW,204,8.0,10.0,59,0.00,,,0.00,0,Wunderground v.1.15,2013-01-19 06:40:00,
2013-01-19 00:46:00,44.2,31.2,30.06,SSW,205,8.0,10.0,60,0.00,,,0.00,0,Wunderground v.1.15,2013-01-19 06:46:00,
2013-01-19 00:52:00,43.9,30.9,30.06,SSW,203,8.0,9.0,60,0.00,,,0.00,0,Wunderground v.1.15,2013-01-19 06:52:00,
2013-01-19 00:58:00,43.6,31.0,30.06,SSW,202,8.0,8.0,61,0.00,,,0.00,0,Wunderground v.1.15,2013-01-19 06:58:00,
2013-01-19 01:04:00,43.4,30.8,30.06,SSW,211,7.0,8.0,61,0.00,,,0.00,0,Wunderground v.1.15,2013-01-19 07:04:00,
2013-01-19 01:10:00,43.1,30.6,30.06,SSW,208,7.0,9.0,61,0.00,,,0.00,0,Wunderground v.1.15,2013-01-19 07:10:00,
2013-01-19 01:16:00,42.8,30.7,30.06,SSW,197,7.0,9.0,62,0.00,,,0.00,0,Wunderground v.1.15,2013-01-19 07:16:00,
2013-01-19 01:22:00,42.5,30.4,30.06,SSW,208,7.0,9.0,62,0.00,,,0.00,0,Wunderground v.1.15,2013-01-19 07:22:00,
2013-01-19 01:28:00,42.2,30.5,30.06,SSW,201,8.0,8.0,63,0.00,,,0.00,0,Wunderground v.1.15,2013-01-19 07:28:00,
2013-01-19 01:34:00,42.0,30.7,30.05,SSW,199,7.0,8.0,64,0.00,,,0.00,0,Wunderground v.1.15,2013-01-19 07:34:00,
2013-01-19 01:40:00,41.8,30.5,30.05,SSW,192,8.0,8.0,64,0.00,,,0.00,0,Wunderground v.1.15,2013-01-19 07:40:00,
2013-01-19 01:46:00,41.7,30.4,30.05,SSW,203,6.0,8.0,64,0.00,,,0.00,0,Wunderground v.1.15,2013-01-19 07:46:00,
2013-01-19 01:52:00,41.6,30.3,30.06,SSW,201,6.0,7.0,64,0.00,,,0.00,0,Wunderground v.1.15,2013-01-19 07:52:00,
2013-01-19 01:58:00,41.4,30.5,30.06,SSW,199,6.0,6.0,65,0.00,,,0.00,0,Wunderground v.1.15,2013-01-19 07:58:00,
2013-01-19 02:04:00,41.1,30.2,30.06,SSW,200,6.0,12.0,65,0.00,,,0.00,0,Wunderground v.1.15,2013-01-19 08:04:00,
2013-01-19 02:10:00,40.8,29.9,30.06,SSW,196,5.0,12.0,65,0.00,,,0.00,0,Wunderground v.1.15,2013-01-19 08:10:00,
2013-01-19 02:16:00,40.5,30.0,30.05,SSW,196,5.0,12.0,66,0.00,,,0.00,0,Wunderground v.1.15,2013-01-19 08:16:00,
2013-01-19 02:22:00,40.2,29.7,30.06,SSW,194,5.0,12.0,66,0.00,,,0.00,0,Wunderground v.1.15,2013-01-19 08:22:00,
2013-01-19 02:28:00,39.8,29.4,30.06,South,190,4.0,12.0,66,0.00,,,0.00,0,Wunderground v.1.15,2013-01-19 08:28:00,
2013-01-19 02:34:00,39.3,29.3,30.05,South,181,4.0,12.0,67,0.00,,,0.00,0,Wunderground v.1.15,2013-01-19 08:34:00,
2013-01-19 02:40:00,38.8,29.1,30.05,South,181,5.0,12.0,68,0.00,,,0.00,0,Wunderground v.1.15,2013-01-19 08:40:00,
2013-01-19 02:46:00,38.3,29.0,30.05,South,181,5.0,12.0,69,0.00,,,0.00,0,Wunderground v.1.15,2013-01-19 08:46:00,
2013-01-19 02:52:00,37.9,28.6,30.05,South,181,5.0,12.0,69,0.00,,,0.00,0,Wunderground v.1.15,2013-01-19 08:52:00,
2013-01-19 02:58:00,37.6,28.7,30.05,South,181,4.0,12.0,70,0.00,,,0.00,0,Wunderground v.1.15,2013-01-19 08:58:00,
2013-01-19 03:04:00,37.3,28.4,30.05,South,181,4.0,12.0,70,0.00,,,0.00,0,Wunderground v.1.15,2013-01-19 09:04:00,
2013-01-19 03:10:00,37.0,28.1,30.05,South,181,5.0,12.0,70,0.00,,,0.00,0,Wunderground v.1.15,2013-01-19 09:10:00,
2013-01-19 03:16:00,36.7,28.2,30.05,South,181,5.0,12.0,71,0.00,,,0.00,0,Wunderground v.1.15,2013-01-19 09:16:00,
2013-01-19 03:22:00,36.4,28.2,30.05,South,180,5.0,12.0,72,0.00,,,0.00,0,Wunderground v.1.15,2013-01-19 09:22:00,
2013-01-19 03:28:00,36.2,28.0,30.05,South,183,5.0,5.0,72,0.00,,,0.00,0,Wunderground v.1.15,2013-01-19 09:28:00,
2013-01-19 03:34:00,36.0,27.8,30.05,South,183,4.0,12.0,72,0.00,,,0.00,0,Wunderground v.1.15,2013-01-19 09:34:00,
2013-01-19 03:40:00,35.8,27.7,30.05,South,183,4.0,12.0,72,0.00,,,0.00,0,Wunderground v.1.15,2013-01-19 09:40:00,
2013-01-19 03:46:00,35.6,27.5,30.05,South,184,4.0,12.0,72,0.00,,,0.00,0,Wunderground v.1.15,2013-01-19 09:46:00,
2013-01-19 03:52:00,35.3,27.5,30.05,South,187,4.0,12.0,73,0.00,,,0.00,0,Wunderground v.1.15,2013-01-19 09:52:00,
2013-01-19 03:58:00,35.2,27.7,30.05,SSW,193,4.0,12.0,74,0.00,,,0.00,0,Wunderground v.1.15,2013-01-19 09:58:00,
2013-01-19 04:04:00,35.0,27.5,30.04,SSW,195,5.0,12.0,74,0.00,,,0.00,0,Wunderground v.1.15,2013-01-19 10:04:00,
2013-01-19 04:10:00,34.9,27.5,30.04,South,189,5.0,12.0,74,0.00,,,0.00,0,Wunderground v.1.15,2013-01-19 10:10:00,
2013-01-19 04:16:00,34.8,27.7,30.04,South,185,5.0,12.0,75,0.00,,,0.00,0,Wunderground v.1.15,2013-01-19 10:16:00,
2013-01-19 04:22:00,34.7,27.6,30.04,South,184,5.0,12.0,75,0.00,,,0.00,0,Wunderground v.1.15,2013-01-19 10:22:00,
2013-01-19 04:28:00,34.5,27.4,30.04,South,183,6.0,6.0,75,0.00,,,0.00,0,Wunderground v.1.15,2013-01-19 10:28:00,
2013-01-19 04:34:00,34.5,27.7,30.04,South,183,5.0,12.0,76,0.00,,,0.00,0,Wunderground v.1.15,2013-01-19 10:34:00,
2013-01-19 04:40:00,34.3,27.5,30.04,South,183,5.0,6.0,76,0.00,,,0.00,0,Wunderground v.1.15,2013-01-19 10:40:00,
2013-01-19 04:46:00,34.1,27.0,30.04,South,182,5.0,12.0,75,0.00,,,0.00,0,Wunderground v.1.15,2013-01-19 10:46:00,
2013-01-19 04:52:00,33.9,26.8,30.04,South,182,5.0,12.0,75,0.00,,,0.00,0,Wunderground v.1.15,2013-01-19 10:52:00,
2013-01-19 04:58:00,33.6,26.5,30.04,South,182,4.0,12.0,75,0.00,,,0.00,0,Wunderground v.1.15,2013-01-19 10:58:00,
2013-01-19 05:04:00,33.3,26.2,30.04,South,182,4.0,12.0,75,0.00,,,0.00,0,Wunderground v.1.15,2013-01-19 11:04:00,
2013-01-19 05:10:00,33.0,26.3,30.04,South,182,4.0,12.0,76,0.00,,,0.00,0,Wunderground v.1.15,2013-01-19 11:10:00,
2013-01-19 06:48:00,30.9,24.8,30.06,South,182,0.0,12.0,78,0.00,,,0.00,0,Wunderground v.1.15,2013-01-19 12:48:00,
2013-01-19 06:50:00,30.8,24.7,30.06,South,182,0.0,12.0,78,0.00,,,0.00,0,Wunderground v.1.15,2013-01-19 12:50:00,
2013-01-19 06:52:00,30.7,24.7,30.06,South,181,1.0,12.0,78,0.00,,,0.00,0,Wunderground v.1.15,2013-01-19 12:52:00,
2013-01-19 06:58:00,30.3,24.3,30.06,South,182,2.0,12.0,78,0.00,,,0.00,0,Wunderground v.1.15,2013-01-19 12:58:00,
2013-01-19 07:00:00,30.2,24.2,30.06,South,182,3.0,12.0,78,0.00,,,0.00,0,Wunderground v.1.15,2013-01-19 13:00:00,
2013-01-19 07:06:00,29.9,23.9,30.05,South,191,4.0,12.0,78,0.00,,,0.00,0,Wunderground v.1.15,2013-01-19 13:06:00,
2013-01-19 07:12:00,29.9,26.2,30.05,SSW,194,6.0,12.0,86,0.00,,,0.00,0,Wunderground v.1.15,2013-01-19 13:12:00,
2013-01-19 07:18:00,30.2,25.1,30.05,SSW,197,6.0,12.0,81,0.00,,,0.00,0,Wunderground v.1.15,2013-01-19 13:18:00,
2013-01-19 07:24:00,30.6,25.8,30.06,SSW,197,6.0,12.0,82,0.00,,,0.00,0,Wunderground v.1.15,2013-01-19 13:24:00,
2013-01-19 07:30:00,30.8,26.0,30.06,SSW,199,5.0,12.0,82,0.00,,,0.00,0,Wunderground v.1.15,2013-01-19 13:30:00,
2013-01-19 07:36:00,31.0,26.1,30.06,SSW,203,5.0,12.0,82,0.00,,,0.00,0,Wunderground v.1.15,2013-01-19 13:36:00,
2013-01-19 07:42:00,31.1,26.2,30.07,SSW,203,5.0,12.0,82,0.00,,,0.00,5,Wunderground v.1.15,2013-01-19 13:42:00,
2013-01-19 07:48:00,31.1,26.2,30.07,SSW,199,5.0,12.0,82,0.00,,,0.00,9,Wunderground v.1.15,2013-01-19 13:48:00,
2013-01-19 07:54:00,31.2,26.6,30.06,SSW,198,6.0,12.0,83,0.00,,,0.00,11,Wunderground v.1.15,2013-01-19 13:54:00,
2013-01-19 08:00:00,31.5,26.9,30.07,SSW,200,6.0,12.0,83,0.00,,,0.00,14,Wunderground v.1.15,2013-01-19 14:00:00,
2013-01-19 08:06:00,31.7,27.1,30.08,SSW,201,5.0,12.0,83,0.00,,,0.00,16,Wunderground v.1.15,2013-01-19 14:06:00,
2013-01-19 08:12:00,31.9,27.3,30.07,SSW,201,4.0,12.0,83,0.00,,,0.00,21,Wunderground v.1.15,2013-01-19 14:12:00,
2013-01-19 08:18:00,32.0,27.4,30.07,SSW,201,3.0,12.0,83,0.00,,,0.00,21,Wunderground v.1.15,2013-01-19 14:18:00,
2013-01-19 08:24:00,32.2,27.6,30.07,SSW,201,4.0,12.0,83,0.00,,,0.00,35,Wunderground v.1.15,2013-01-19 14:24:00,
2013-01-19 08:30:00,32.6,28.0,30.07,SSW,194,5.0,12.0,83,0.00,,,0.00,35,Wunderground v.1.15,2013-01-19 14:30:00,
2013-01-19 08:36:00,33.1,28.5,30.07,SSW,193,5.0,12.0,83,0.00,,,0.00,53,Wunderground v.1.15,2013-01-19 14:36:00,
2013-01-19 08:42:00,33.6,29.0,30.07,SSW,193,4.0,12.0,83,0.00,,,0.00,104,Wunderground v.1.15,2013-01-19 14:42:00,
2013-01-19 08:48:00,34.1,29.5,30.07,SSW,193,4.0,12.0,83,0.00,,,0.00,132,Wunderground v.1.15,2013-01-19 14:48:00,
2013-01-19 08:54:00,34.9,30.6,30.07,South,179,4.0,12.0,84,0.00,,,0.00,151,Wunderground v.1.15,2013-01-19 14:54:00,
2013-01-19 09:00:00,35.7,31.0,30.08,South,175,5.0,6.0,83,0.00,,,0.00,171,Wunderground v.1.15,2013-01-19 15:00:00,
2013-01-19 09:06:00,36.4,31.4,30.08,South,190,4.0,12.0,82,0.00,,,0.00,190,Wunderground v.1.15,2013-01-19 15:06:00,
2013-01-19 09:12:00,37.1,32.1,30.09,SSW,212,4.0,12.0,82,0.00,,,0.00,209,Wunderground v.1.15,2013-01-19 15:12:00,
2013-01-19 09:18:00,37.8,32.2,30.09,SSW,212,3.0,3.0,80,0.00,,,0.00,227,Wunderground v.1.15,2013-01-19 15:18:00,
2013-01-19 09:24:00,38.6,32.6,30.09,SSW,213,2.0,12.0,79,0.00,,,0.00,241,Wunderground v.1.15,2013-01-19 15:24:00,
2013-01-19 09:30:00,39.5,32.9,30.09,SW,222,3.0,12.0,77,0.00,,,0.00,257,Wunderground v.1.15,2013-01-19 15:30:00,
2013-01-19 09:36:00,40.3,33.3,30.09,SW,225,4.0,12.0,76,0.00,,,0.00,199,Wunderground v.1.15,2013-01-19 15:36:00,
2013-01-19 09:42:00,41.2,33.5,30.10,SW,230,3.0,12.0,74,0.00,,,0.00,251,Wunderground v.1.15,2013-01-19 15:42:00,
2013-01-19 09:48:00,42.0,33.6,30.11,SW,233,3.0,12.0,72,0.00,,,0.00,304,Wunderground v.1.15,2013-01-19 15:48:00,
2013-01-19 09:54:00,42.8,33.7,30.12,WSW,242,4.0,12.0,70,0.00,,,0.00,311,Wunderground v.1.15,2013-01-19 15:54:00,
2013-01-19 10:00:00,43.4,33.9,30.12,WSW,242,4.0,5.0,69,0.00,,,0.00,338,Wunderground v.1.15,2013-01-19 16:00:00,
2013-01-19 10:06:00,44.5,33.8,30.12,WSW,241,4.0,12.0,66,0.00,,,0.00,352,Wunderground v.1.15,2013-01-19 16:06:00,
2013-01-19 10:12:00,45.5,34.4,30.12,WSW,245,3.0,12.0,65,0.00,,,0.00,366,Wunderground v.1.15,2013-01-19 16:12:00,
2013-01-19 10:18:00,46.1,33.8,30.13,WSW,256,4.0,12.0,62,0.00,,,0.00,378,Wunderground v.1.15,2013-01-19 16:18:00,
2013-01-19 10:24:00,46.5,33.8,30.12,WSW,254,5.0,12.0,61,0.00,,,0.00,394,Wunderground v.1.15,2013-01-19 16:24:00,
2013-01-19 10:30:00,47.0,33.8,30.13,WSW,254,4.0,12.0,60,0.00,,,0.00,399,Wunderground v.1.15,2013-01-19 16:30:00,
2013-01-19 10:36:00,47.9,34.3,30.13,WSW,254,3.0,12.0,59,0.00,,,0.00,417,Wunderground v.1.15,2013-01-19 16:36:00,
2013-01-19 10:42:00,48.7,34.1,30.13,West,259,4.0,12.0,57,0.00,,,0.00,425,Wunderground v.1.15,2013-01-19 16:42:00,
2013-01-19 10:48:00,49.4,32.5,30.12,West,259,4.0,4.0,52,0.00,,,0.00,439,Wunderground v.1.15,2013-01-19 16:48:00,
2013-01-19 10:54:00,50.1,32.7,30.12,West,260,3.0,12.0,51,0.00,,,0.00,450,Wunderground v.1.15,2013-01-19 16:54:00,
2013-01-19 11:00:00,50.7,31.2,30.12,West,266,3.0,12.0,47,0.00,,,0.00,459,Wunderground v.1.15,2013-01-19 17:00:00,
2013-01-19 11:06:00,51.2,31.1,30.12,West,266,2.0,12.0,46,0.00,,,0.00,468,Wunderground v.1.15,2013-01-19 17:06:00,
2013-01-19 11:12:00,51.8,31.1,30.12,West,266,3.0,12.0,45,0.00,,,0.00,478,Wunderground v.1.15,2013-01-19 17:12:00,
2013-01-19 11:18:00,52.2,31.5,30.11,West,266,3.0,3.0,45,0.00,,,0.00,490,Wunderground v.1.15,2013-01-19 17:18:00,
2013-01-19 11:24:00,52.5,31.2,30.11,West,266,1.0,12.0,44,0.00,,,0.00,497,Wunderground v.1.15,2013-01-19 17:24:00,
2013-01-19 11:30:00,53.0,31.6,30.10,West,264,2.0,12.0,44,0.00,,,0.00,506,Wunderground v.1.15,2013-01-19 17:30:00,
2013-01-19 11:38:00,53.9,32.5,30.09,SW,233,4.0,12.0,44,0.00,,,0.00,515,Wunderground v.1.15,2013-01-19 17:38:00,
2013-01-19 11:44:00,54.6,31.9,30.09,SW,215,4.0,12.0,42,0.00,,,0.00,524,Wunderground v.1.15,2013-01-19 17:44:00,
2013-01-19 11:50:00,55.1,30.6,30.08,SW,215,4.0,12.0,39,0.00,,,0.00,531,Wunderground v.1.15,2013-01-19 17:50:00,
2013-01-19 11:56:00,55.7,31.1,30.08,SW,215,3.0,12.0,39,0.00,,,0.00,536,Wunderground v.1.15,2013-01-19 17:56:00,
2013-01-19 12:02:00,56.2,30.9,30.09,SW,215,3.0,12.0,38,0.00,,,0.00,541,Wunderground v.1.15,2013-01-19 18:02:00,
2013-01-19 12:08:00,56.5,30.5,30.09,SW,215,2.0,12.0,37,0.00,,,0.00,550,Wunderground v.1.15,2013-01-19 18:08:00,
2013-01-19 12:14:00,56.9,30.9,30.09,WNW,297,3.0,12.0,37,0.00,,,0.00,555,Wunderground v.1.15,2013-01-19 18:14:00,
2013-01-19 12:20:00,57.3,30.5,30.09,NW,317,6.0,12.0,36,0.00,,,0.00,563,Wunderground v.1.15,2013-01-19 18:20:00,
2013-01-19 12:30:00,57.4,30.6,30.09,NW,310,6.0,7.0,36,0.00,,,0.00,563,Wunderground v.1.15,2013-01-19 18:30:00,
2013-01-19 12:38:00,57.6,30.8,30.09,WNW,283,6.0,6.0,36,0.00,,,0.00,564,Wunderground v.1.15,2013-01-19 18:38:00,
2013-01-19 12:44:00,57.7,30.2,30.09,NW,322,6.0,12.0,35,0.00,,,0.00,452,Wunderground v.1.15,2013-01-19 18:44:00,
2013-01-19 12:50:00,57.6,30.8,30.08,NW,322,6.0,12.0,36,0.00,,,0.00,554,Wunderground v.1.15,2013-01-19 18:50:00,
2013-01-19 12:56:00,58.0,30.5,30.09,NW,315,4.0,12.0,35,0.00,,,0.00,555,Wunderground v.1.15,2013-01-19 18:56:00,
2013-01-19 13:02:00,58.8,30.5,30.09,NW,322,5.0,12.0,34,0.00,,,0.00,552,Wunderground v.1.15,2013-01-19 19:02:00,
2013-01-19 13:08:00,59.1,30.0,30.09,NW,316,6.0,6.0,33,0.00,,,0.00,550,Wunderground v.1.15,2013-01-19 19:08:00,
2013-01-19 13:16:00,59.4,28.7,30.09,NW,314,6.0,12.0,31,0.00,,,0.00,545,Wunderground v.1.15,2013-01-19 19:16:00,
2013-01-19 13:22:00,59.5,28.8,30.08,NNW,328,7.0,12.0,31,0.00,,,0.00,545,Wunderground v.1.15,2013-01-19 19:22:00,
2013-01-19 13:28:00,59.9,28.4,30.08,WNW,288,8.0,8.0,30,0.00,,,0.00,541,Wunderground v.1.15,2013-01-19 19:28:00,
2013-01-19 13:34:00,59.8,27.4,30.08,WNW,297,8.0,12.0,29,0.00,,,0.00,536,Wunderground v.1.15,2013-01-19 19:34:00,
2013-01-19 13:42:00,60.0,29.2,30.08,NW,324,6.0,12.0,31,0.00,,,0.00,531,Wunderground v.1.15,2013-01-19 19:42:00,
2013-01-19 13:50:00,60.6,29.0,30.08,WNW,299,6.0,12.0,30,0.00,,,0.00,524,Wunderground v.1.15,2013-01-19 19:50:00,
2013-01-19 13:58:00,60.7,26.5,30.08,NNW,329,7.0,12.0,27,0.00,,,0.00,515,Wunderground v.1.15,2013-01-19 19:58:00,
2013-01-19 14:06:00,60.9,26.7,30.08,NNW,343,10.0,15.0,27,0.00,,,0.00,438,Wunderground v.1.15,2013-01-19 20:06:00,
2013-01-19 14:14:00,61.2,26.9,30.08,NNW,345,9.0,12.0,27,0.00,,,0.00,51,Wunderground v.1.15,2013-01-19 20:14:00,
2013-01-19 14:20:00,61.4,27.1,30.07,North,7,7.0,12.0,27,0.00,,,0.00,37,Wunderground v.1.15,2013-01-19 20:20:00,
2013-01-19 14:30:00,61.4,26.2,30.08,North,352,5.0,12.0,26,0.00,,,0.00,37,Wunderground v.1.15,2013-01-19 20:30:00,
2013-01-19 14:36:00,61.5,26.3,30.08,North,352,7.0,12.0,26,0.00,,,0.00,37,Wunderground v.1.15,2013-01-19 20:36:00,
2013-01-19 14:42:00,61.4,26.2,30.08,NW,318,7.0,12.0,26,0.00,,,0.00,35,Wunderground v.1.15,2013-01-19 20:42:00,
2013-01-19 14:50:00,61.5,26.3,30.08,North,352,8.0,12.0,26,0.00,,,0.00,35,Wunderground v.1.15,2013-01-19 20:50:00,
2013-01-19 14:56:00,61.9,25.7,30.08,North,352,10.0,12.0,25,0.00,,,0.00,35,Wunderground v.1.15,2013-01-19 20:56:00,
2013-01-19 15:02:00,62.2,25.9,30.08,North,2,11.0,12.0,25,0.00,,,0.00,47,Wunderground v.1.15,2013-01-19 21:02:00,
2013-01-19 15:08:00,62.4,26.1,30.08,North,7,10.0,12.0,25,0.00,,,0.00,74,Wunderground v.1.15,2013-01-19 21:08:00,
2013-01-19 15:14:00,62.5,26.2,30.09,NW,324,10.0,12.0,25,0.00,,,0.00,86,Wunderground v.1.15,2013-01-19 21:14:00,
2013-01-19 15:20:00,62.6,26.2,30.09,North,352,9.0,11.0,25,0.00,,,0.00,40,Wunderground v.1.15,2013-01-19 21:20:00,
2013-01-19 15:26:00,62.8,26.4,30.09,North,352,10.0,15.0,25,0.00,,,0.00,109,Wunderground v.1.15,2013-01-19 21:26:00,
2013-01-19 15:32:00,63.0,26.6,30.09,North,2,11.0,12.0,25,0.00,,,0.00,37,Wunderground v.1.15,2013-01-19 21:32:00,
2013-01-19 15:40:00,63.1,25.7,30.09,North,2,10.0,12.0,24,0.00,,,0.00,149,Wunderground v.1.15,2013-01-19 21:40:00,
2013-01-19 15:46:00,63.2,26.8,30.09,North,357,9.0,12.0,25,0.00,,,0.00,32,Wunderground v.1.15,2013-01-19 21:46:00,
2013-01-19 15:52:00,63.2,26.8,30.10,North,2,9.0,12.0,25,0.00,,,0.00,46,Wunderground v.1.15,2013-01-19 21:52:00,
2013-01-19 15:58:00,63.3,25.9,30.10,NNW,336,9.0,9.0,24,0.00,,,0.00,32,Wunderground v.1.15,2013-01-19 21:58:00,
2013-01-19 16:04:00,63.3,25.9,30.10,NNW,343,7.0,12.0,24,0.00,,,0.00,132,Wunderground v.1.15,2013-01-19 22:04:00,
2013-01-19 16:10:00,63.5,26.0,30.10,North,352,8.0,12.0,24,0.00,,,0.00,246,Wunderground v.1.15,2013-01-19 22:10:00,
2013-01-19 16:18:00,63.6,25.1,30.10,NNW,345,9.0,13.0,23,0.00,,,0.00,53,Wunderground v.1.15,2013-01-19 22:18:00,
2013-01-19 16:24:00,63.6,25.1,30.11,North,2,11.0,13.0,23,0.00,,,0.00,28,Wunderground v.1.15,2013-01-19 22:24:00,
2013-01-19 16:30:00,63.4,24.9,30.11,North,2,10.0,14.0,23,0.00,,,0.00,26,Wunderground v.1.15,2013-01-19 22:30:00,
2013-01-19 16:36:00,63.1,24.7,30.11,North,357,12.0,14.0,23,0.00,,,0.00,25,Wunderground v.1.15,2013-01-19 22:36:00,
2013-01-19 16:42:00,62.7,25.3,30.11,NNW,343,12.0,12.0,24,0.00,,,0.00,25,Wunderground v.1.15,2013-01-19 22:42:00,
2013-01-19 16:48:00,62.3,25.0,30.11,North,357,9.0,9.0,24,0.00,,,0.00,23,Wunderground v.1.15,2013-01-19 22:48:00,
2013-01-19 16:54:00,61.9,25.7,30.12,North,352,9.0,12.0,25,0.00,,,0.00,21,Wunderground v.1.15,2013-01-19 22:54:00,
2013-01-19 17:04:00,61.0,24.9,30.12,NNW,347,9.0,12.0,25,0.00,,,0.00,19,Wunderground v.1.15,2013-01-19 23:04:00,
2013-01-19 17:10:00,60.6,25.5,30.12,NNW,348,9.0,12.0,26,0.00,,,0.00,18,Wunderground v.1.15,2013-01-19 23:10:00,
2013-01-19 17:16:00,60.1,25.1,30.13,North,352,7.0,12.0,26,0.00,,,0.00,16,Wunderground v.1.15,2013-01-19 23:16:00,
2013-01-19 17:22:00,59.5,25.5,30.13,North,352,7.0,12.0,27,0.00,,,0.00,12,Wunderground v.1.15,2013-01-19 23:22:00,
2013-01-19 17:28:00,58.8,25.7,30.13,North,352,7.0,12.0,28,0.00,,,0.00,11,Wunderground v.1.15,2013-01-19 23:28:00,
2013-01-19 17:34:00,57.9,25.0,30.13,North,352,7.0,12.0,28,0.00,,,0.00,7,Wunderground v.1.15,2013-01-19 23:34:00,
2013-01-19 17:40:00,57.1,24.3,30.13,North,352,7.0,12.0,28,0.00,,,0.00,5,Wunderground v.1.15,2013-01-19 23:40:00,
2013-01-19 17:46:00,56.6,24.7,30.14,North,352,6.0,12.0,29,0.00,,,0.00,0,Wunderground v.1.15,2013-01-19 23:46:00,
2013-01-19 17:52:00,56.1,25.1,30.14,North,352,5.0,12.0,30,0.00,,,0.00,0,Wunderground v.1.15,2013-01-19 23:52:00,
2013-01-19 17:58:00,55.6,24.6,30.14,North,352,5.0,12.0,30,0.00,,,0.00,0,Wunderground v.1.15,2013-01-19 23:58:00,
2013-01-19 18:04:00,55.0,24.9,30.14,North,357,6.0,12.0,31,0.00,,,0.00,0,Wunderground v.1.15,2013-01-20 00:04:00,
2013-01-19 18:10:00,54.4,25.1,30.15,North,357,6.0,12.0,32,0.00,,,0.00,0,Wunderground v.1.15,2013-01-20 00:10:00,
2013-01-19 18:18:00,54.0,24.8,30.15,North,357,5.0,5.0,32,0.00,,,0.00,0,Wunderground v.1.15,2013-01-20 00:18:00,
2013-01-19 18:24:00,53.8,25.3,30.15,North,357,5.0,12.0,33,0.00,,,0.00,0,Wunderground v.1.15,2013-01-20 00:24:00,
2013-01-19 18:30:00,53.7,25.2,30.15,North,357,6.0,12.0,33,0.00,,,0.00,0,Wunderground v.1.15,2013-01-20 00:30:00,
2013-01-19 18:36:00,53.4,25.7,30.16,North,357,6.0,12.0,34,0.00,,,0.00,0,Wunderground v.1.15,2013-01-20 00:36:00,
2013-01-19 18:42:00,53.2,25.5,30.16,North,357,6.0,12.0,34,0.00,,,0.00,0,Wunderground v.1.15,2013-01-20 00:42:00,
2013-01-19 18:48:00,52.9,25.3,30.16,North,357,5.0,12.0,34,0.00,,,0.00,0,Wunderground v.1.15,2013-01-20 00:48:00,
2013-01-19 18:54:00,52.6,25.7,30.16,North,357,6.0,12.0,35,0.00,,,0.00,0,Wunderground v.1.15,2013-01-20 00:54:00,
2013-01-19 19:02:00,52.2,25.3,30.17,North,357,5.0,12.0,35,0.00,,,0.00,0,Wunderground v.1.15,2013-01-20 01:02:00,
2013-01-19 19:08:00,51.9,25.8,30.17,North,357,5.0,5.0,36,0.00,,,0.00,0,Wunderground v.1.15,2013-01-20 01:08:00,
2013-01-19 19:16:00,51.6,25.5,30.17,North,357,4.0,12.0,36,0.00,,,0.00,0,Wunderground v.1.15,2013-01-20 01:16:00,
2013-01-19 19:22:00,51.3,25.9,30.17,North,357,5.0,12.0,37,0.00,,,0.00,0,Wunderground v.1.15,2013-01-20 01:22:00,
2013-01-19 19:28:00,50.9,25.5,30.18,North,357,5.0,5.0,37,0.00,,,0.00,0,Wunderground v.1.15,2013-01-20 01:28:00,
2013-01-19 19:34:00,50.5,25.8,30.18,North,357,5.0,12.0,38,0.00,,,0.00,0,Wunderground v.1.15,2013-01-20 01:34:00,
2013-01-19 19:40:00,50.5,25.8,30.18,North,352,6.0,12.0,38,0.00,,,0.00,0,Wunderground v.1.15,2013-01-20 01:40:00,
2013-01-19 19:48:00,50.6,25.9,30.19,North,352,5.0,12.0,38,0.00,,,0.00,0,Wunderground v.1.15,2013-01-20 01:48:00,
2013-01-19 19:54:00,50.6,25.9,30.19,North,352,5.0,12.0,38,0.00,,,0.00,0,Wunderground v.1.15,2013-01-20 01:54:00,
2013-01-19 20:00:00,50.7,26.0,30.19,North,352,4.0,12.0,38,0.00,,,0.00,0,Wunderground v.1.15,2013-01-20 02:00:00,
2013-01-19 20:08:00,50.7,26.0,30.20,NNW,347,5.0,12.0,38,0.00,,,0.00,0,Wunderground v.1.15,2013-01-20 02:08:00,
2013-01-19 20:18:00,50.9,26.2,30.20,NNW,346,5.0,5.0,38,0.00,,,0.00,0,Wunderground v.1.15,2013-01-20 02:18:00,
2013-01-19 20:24:00,50.9,25.5,30.20,NNW,346,5.0,12.0,37,0.00,,,0.00,0,Wunderground v.1.15,2013-01-20 02:24:00,
2013-01-19 20:30:00,50.8,26.1,30.20,NNW,346,5.0,12.0,38,0.00,,,0.00,0,Wunderground v.1.15,2013-01-20 02:30:00,
2013-01-19 20:36:00,50.5,25.8,30.20,NNW,346,5.0,12.0,38,0.00,,,0.00,0,Wunderground v.1.15,2013-01-20 02:36:00,
2013-01-19 20:42:00,50.1,25.5,30.20,NNW,346,5.0,12.0,38,0.00,,,0.00,0,Wunderground v.1.15,2013-01-20 02:42:00,
2013-01-19 20:48:00,49.4,25.4,30.20,NNW,345,6.0,12.0,39,0.00,,,0.00,0,Wunderground v.1.15,2013-01-20 02:48:00,
2013-01-19 20:54:00,48.6,25.3,30.20,NNW,347,6.0,12.0,40,0.00,,,0.00,0,Wunderground v.1.15,2013-01-20 02:54:00,
2013-01-19 21:00:00,48.0,26.0,30.20,NNW,347,6.0,12.0,42,0.00,,,0.00,0,Wunderground v.1.15,2013-01-20 03:00:00,
2013-01-19 21:06:00,47.6,25.6,30.20,NNW,347,7.0,12.0,42,0.00,,,0.00,0,Wunderground v.1.15,2013-01-20 03:06:00,
2013-01-19 21:14:00,47.2,25.8,30.20,NNW,347,6.0,12.0,43,0.00,,,0.00,0,Wunderground v.1.15,2013-01-20 03:14:00,
2013-01-19 21:20:00,47.0,25.6,30.20,NNW,347,6.0,12.0,43,0.00,,,0.00,0,Wunderground v.1.15,2013-01-20 03:20:00,
2013-01-19 21:28:00,46.8,26.0,30.20,NNW,347,5.0,12.0,44,0.00,,,0.00,0,Wunderground v.1.15,2013-01-20 03:28:00,
2013-01-19 21:34:00,46.8,26.0,30.20,NNW,347,5.0,12.0,44,0.00,,,0.00,0,Wunderground v.1.15,2013-01-20 03:34:00,
2013-01-19 21:40:00,46.8,25.5,30.20,NNW,347,5.0,12.0,43,0.00,,,0.00,0,Wunderground v.1.15,2013-01-20 03:40:00,
2013-01-19 21:46:00,46.6,25.3,30.20,NNW,347,5.0,12.0,43,0.00,,,0.00,0,Wunderground v.1.15,2013-01-20 03:46:00,
2013-01-19 21:52:00,46.5,25.7,30.20,NNW,347,5.0,12.0,44,0.00,,,0.00,0,Wunderground v.1.15,2013-01-20 03:52:00,
2013-01-19 21:58:00,46.2,25.5,30.21,NNW,347,3.0,3.0,44,0.00,,,0.00,0,Wunderground v.1.15,2013-01-20 03:58:00,
2013-01-19 22:04:00,45.7,25.0,30.21,NNW,347,1.0,12.0,44,0.00,,,0.00,0,Wunderground v.1.15,2013-01-20 04:04:00,
2013-01-19 22:10:00,44.6,24.5,30.21,NNW,347,0.0,12.0,45,0.00,,,0.00,0,Wunderground v.1.15,2013-01-20 04:10:00,
2013-01-19 22:20:00,42.9,24.5,30.21,NNW,347,1.0,12.0,48,0.00,,,0.00,0,Wunderground v.1.15,2013-01-20 04:20:00,
2013-01-19 22:26:00,42.1,24.3,30.21,NNW,347,1.0,12.0,49,0.00,,,0.00,0,Wunderground v.1.15,2013-01-20 04:26:00,
2013-01-19 22:34:00,41.2,23.9,30.21,NNW,347,1.0,12.0,50,0.00,,,0.00,0,Wunderground v.1.15,2013-01-20 04:34:00,
2013-01-19 22:40:00,40.6,24.3,30.22,NNW,347,2.0,12.0,52,0.00,,,0.00,0,Wunderground v.1.15,2013-01-20 04:40:00,
2013-01-19 22:50:00,39.9,24.6,30.22,NNW,347,2.0,12.0,54,0.00,,,0.00,0,Wunderground v.1.15,2013-01-20 04:50:00,
2013-01-19 22:56:00,39.6,24.3,30.22,NNW,347,3.0,12.0,54,0.00,,,0.00,0,Wunderground v.1.15,2013-01-20 04:56:00,
2013-01-19 23:00:00,39.3,24.0,30.23,NNW,347,3.0,12.0,54,0.00,,,0.00,0,Wunderground v.1.15,2013-01-20 05:00:00,
2013-01-19 23:04:00,39.1,24.3,30.23,NNW,347,3.0,12.0,55,0.00,,,0.00,0,Wunderground v.1.15,2013-01-20 05:04:00,
2013-01-19 23:10:00,38.8,24.4,30.22,NNW,347,2.0,12.0,56,0.00,,,0.00,0,Wunderground v.1.15,2013-01-20 05:10:00,
2013-01-19 23:12:00,38.6,24.7,30.22,NNW,347,3.0,12.0,57,0.00,,,0.00,0,Wunderground v.1.15,2013-01-20 05:12:00,
2013-01-19 23:18:00,38.2,24.3,30.22,NNW,347,3.0,12.0,57,0.00,,,0.00,0,Wunderground v.1.15,2013-01-20 05:18:00,
2013-01-19 23:24:00,37.8,24.3,30.22,NNW,347,4.0,12.0,58,0.00,,,0.00,0,Wunderground v.1.15,2013-01-20 05:24:00,
2013-01-19 23:30:00,37.5,24.5,30.23,NNW,347,5.0,12.0,59,0.00,,,0.00,0,Wunderground v.1.15,2013-01-20 05:30:00,
2013-01-19 23:36:00,37.3,24.3,30.22,NNW,347,5.0,12.0,59,0.00,,,0.00,0,Wunderground v.1.15,2013-01-20 05:36:00,
2013-01-19 23:42:00,37.2,24.2,30.23,NNW,347,4.0,12.0,59,0.00,,,0.00,0,Wunderground v.1.15,2013-01-20 05:42:00,
2013-01-19 23:48:00,37.1,24.1,30.22,NNW,347,3.0,3.0,59,0.00,,,0.00,0,Wunderground v.1.15,2013-01-20 05:48:00,
2013-01-19 23:54:00,36.9,23.9,30.22,NNW,347,3.0,12.0,59,0.00,,,0.00,0,Wunderground v.1.15,2013-01-20 05:54:00,